Regional Weather Roundup
Issued by NWS

Home | Current Version | Previous Version | Text Only | Print | Product List | Glossary On
Versions: 1 2 3 4 5 6 7 8 9 10 11 12 13 14 15 16 17 18 19 20 21 22 23 24 25 26 27
000
ASUS45 KREV 181510
RWRNV
NEVADA REGIONAL WEATHER ROUNDUP
NATIONAL WEATHER SERVICE RENO NV
800 AM PDT FRI AUG 18 2017

NOTE: "FAIR" INDICATES FEW OR NO CLOUDS BELOW 12,000 FEET WITH NO
SIGNIFICANT WEATHER AND/OR OBSTRUCTIONS TO VISIBILITY.

NVZ001-003-004-181600-
WESTERN NEVADA

CITY           SKY/WX    TMP DP  RH WIND       PRES   REMARKS
RENO           MOSUNNY   68  43  40 CALM      30.21R
MINDEN         FAIR      57  43  58 CALM      30.23S
FALLON         MOSUNNY   70  41  34 S6        30.16R
LOVELOCK       SUNNY     64  38  38 CALM      30.16R
HAWTHORNE      SUNNY     73  36  25 CALM      30.18S
$$

NVZ002-CAZ072-073-181600-
NORTHERN AND CENTRAL SIERRA

CITY           SKY/WX    TMP DP  RH WIND       PRES   REMARKS
S. LAKE TAHOE  MOSUNNY   53  45  74 CALM      30.32R
SQUAW VLY 8000   N/A     63  41  45 SE2         N/A
SUSANVILLE     SUNNY     64  39  39 CALM      30.21R
MAMMOTH LAKES  FAIR      60  37  40 N6        30.38S
BRIDGEPORT     FAIR      51  35  54 CALM      30.37R
$$

NVZ030-031-036-181600-
NORTHERN NEVADA

CITY           SKY/WX    TMP DP  RH WIND       PRES   REMARKS
ELKO           SUNNY     60  33  36 NE3       30.26R
WINNEMUCCA     SUNNY     60  34  37 SE3       30.20R
WENDOVER       SUNNY     72  40  31 NE3       30.18R
$$

NVZ035-037-181600-
CENTRAL NEVADA

CITY           SKY/WX    TMP DP  RH WIND       PRES   REMARKS
ELY            SUNNY     60  36  40 S10       30.31S
$$

NVZ013-014-181600-
SOUTH CENTRAL NEVADA

CITY           SKY/WX    TMP DP  RH WIND       PRES   REMARKS
TONOPAH        MOSUNNY   69  33  26 N12       30.25R
$$

NVZ017-020-022-181600-
SOUTHERN NEVADA

CITY           SKY/WX    TMP DP  RH WIND       PRES   REMARKS
LAS VEGAS      MOSUNNY   87  42  20 CALM      30.01R
N. LAS VEGAS   SUNNY     84  42  22 CALM      30.00R
NELLIS AFB     SUNNY     83  39  20 CALM      29.98R
HENDERSON      SUNNY     84  39  20 SW8       30.05R
MERCURY        SUNNY     78  41  26 CALM      30.09R
$$




USA.gov is the U.S. government's official web portal to all federal, state and local government web resources and services.